timestamp,wind_dir_avg,wind_spd_max_dir,wind_spd_avg,wind_spd_gust,battery_voltage,lat,long
2018-05-13 00:00:00+00:00,276.0,280.0,9.16,10.36,,47.59359,-54.27349
2018-05-13 00:10:00+00:00,274.0,274.0,10.07,11.16,,47.59359,-54.27349
2018-05-13 00:20:00+00:00,273.0,274.0,9.22,10.46,,47.59359,-54.27349
2018-05-13 00:30:00+00:00,273.0,271.0,9.61,10.29,,47.59359,-54.27349
2018-05-13 00:40:00+00:00,273.0,270.0,9.75,10.44,,47.59359,-54.27349
2018-05-13 00:50:00+00:00,271.0,273.0,11.47,12.53,,47.59359,-54.27349
2018-05-13 01:00:00+00:00,282.0,280.0,11.66,12.25,,47.59359,-54.27349
2018-05-13 01:10:00+00:00,277.0,275.0,11.62,12.77,,47.59359,-54.27349
2018-05-13 01:20:00+00:00,281.0,279.0,11.59,12.4,,47.59359,-54.27349
2018-05-13 01:30:00+00:00,286.0,290.0,9.57,10.63,,47.59359,-54.27349
2018-05-13 01:40:00+00:00,291.0,293.0,9.12,10.89,,47.59359,-54.27349
2018-05-13 01:50:00+00:00,290.0,291.0,9.28,10.43,,47.59359,-54.27349
2018-05-13 02:00:00+00:00,291.0,290.0,10.37,11.19,,47.59359,-54.27349
2018-05-13 02:10:00+00:00,294.0,295.0,9.02,10.59,,47.59359,-54.27349
2018-05-13 02:20:00+00:00,296.0,300.0,9.86,11.38,,47.59359,-54.27349
2018-05-13 02:30:00+00:00,296.0,294.0,9.23,10.12,,47.59359,-54.27349
2018-05-13 02:40:00+00:00,291.0,289.0,9.11,9.85,,47.59359,-54.27349
2018-05-13 02:50:00+00:00,285.0,283.0,7.8,9.42,,47.59359,-54.27349
2018-05-13 03:00:00+00:00,283.0,286.0,6.93,7.5,,47.59359,-54.27349
2018-05-13 03:10:00+00:00,281.0,284.0,7.62,8.37,,47.59359,-54.27349
2018-05-13 03:20:00+00:00,270.0,272.0,7.44,8.62,,47.59359,-54.27349
2018-05-13 03:30:00+00:00,256.0,251.0,4.92,5.75,,47.59359,-54.27349
2018-05-13 03:40:00+00:00,259.0,261.0,5.66,7.37,,47.59359,-54.27349
2018-05-13 03:50:00+00:00,253.0,262.0,5.11,6.1,,47.59359,-54.27349
2018-05-13 04:00:00+00:00,253.0,257.0,4.9,5.82,,47.59359,-54.27349
2018-05-13 04:10:00+00:00,239.0,241.0,5.21,5.79,,47.59359,-54.27349
2018-05-13 04:20:00+00:00,250.0,241.0,5.11,6.26,,47.59359,-54.27349
2018-05-13 04:30:00+00:00,251.0,254.0,5.41,6.24,,47.59359,-54.27349
2018-05-13 04:40:00+00:00,258.0,262.0,4.93,5.5,,47.59359,-54.27349
2018-05-13 04:50:00+00:00,258.0,259.0,4.83,5.51,,47.59359,-54.27349
2018-05-13 05:00:00+00:00,262.0,266.0,5.09,5.64,,47.59359,-54.27349
2018-05-13 05:10:00+00:00,267.0,270.0,4.63,5.03,,47.59359,-54.27349
2018-05-13 05:20:00+00:00,266.0,269.0,5.32,5.84,,47.59359,-54.27349
2018-05-13 05:30:00+00:00,265.0,263.0,4.43,4.93,,47.59359,-54.27349
2018-05-13 05:40:00+00:00,268.0,268.0,5.25,6.67,,47.59359,-54.27349
2018-05-13 05:50:00+00:00,265.0,270.0,4.98,6.25,,47.59359,-54.27349
2018-05-13 06:00:00+00:00,263.0,265.0,4.47,5.34,,47.59359,-54.27349
2018-05-13 06:10:00+00:00,254.0,260.0,6.32,7.56,,47.59359,-54.27349
2018-05-13 06:20:00+00:00,259.0,258.0,6.28,7.32,,47.59359,-54.27349
2018-05-13 06:30:00+00:00,270.0,268.0,6.07,7.0,,47.59359,-54.27349
2018-05-13 06:40:00+00:00,271.0,272.0,6.55,7.29,,47.59359,-54.27349
2018-05-13 06:50:00+00:00,273.0,274.0,7.24,8.09,,47.59359,-54.27349
2018-05-13 07:00:00+00:00,281.0,283.0,8.56,9.97,,47.59359,-54.27349
2018-05-13 07:10:00+00:00,275.0,279.0,8.19,9.7,,47.59359,-54.27349
2018-05-13 07:20:00+00:00,283.0,284.0,7.46,8.86,,47.59359,-54.27349
2018-05-13 07:30:00+00:00,291.0,292.0,8.51,10.08,,47.59359,-54.27349
2018-05-13 07:40:00+00:00,287.0,282.0,7.63,9.17,,47.59359,-54.27349
2018-05-13 07:50:00+00:00,285.0,290.0,7.62,8.36,,47.59359,-54.27349
2018-05-13 08:00:00+00:00,266.0,272.0,5.86,6.74,,47.59359,-54.27349
2018-05-13 08:10:00+00:00,256.0,260.0,5.43,6.21,,47.59359,-54.27349
2018-05-13 08:20:00+00:00,248.0,243.0,5.6,6.28,,47.59359,-54.27349
2018-05-13 08:30:00+00:00,235.0,238.0,5.5,6.1,,47.59359,-54.27349
2018-05-13 08:40:00+00:00,239.0,239.0,6.36,7.43,,47.59359,-54.27349
2018-05-13 08:50:00+00:00,256.0,254.0,8.15,9.22,,47.59359,-54.27349
2018-05-13 09:00:00+00:00,249.0,251.0,6.85,7.53,,47.59359,-54.27349
2018-05-13 09:10:00+00:00,253.0,249.0,7.02,7.71,,47.59359,-54.27349
2018-05-13 09:20:00+00:00,247.0,250.0,7.27,7.76,,47.59359,-54.27349
2018-05-13 09:30:00+00:00,247.0,243.0,6.36,7.38,,47.59359,-54.27349
2018-05-13 09:40:00+00:00,245.0,252.0,5.99,6.67,,47.59359,-54.27349
2018-05-13 09:50:00+00:00,234.0,243.0,5.99,6.85,,47.59359,-54.27349
2018-05-13 10:00:00+00:00,235.0,235.0,6.18,6.74,,47.59359,-54.27349
2018-05-13 10:10:00+00:00,245.0,244.0,5.99,7.01,,47.59359,-54.27349
2018-05-13 10:20:00+00:00,240.0,236.0,5.26,6.2,,47.59359,-54.27349
2018-05-13 10:30:00+00:00,233.0,230.0,4.62,5.33,,47.59359,-54.27349
2018-05-13 10:40:00+00:00,225.0,231.0,6.29,6.93,,47.59359,-54.27349
2018-05-13 10:50:00+00:00,226.0,228.0,6.57,7.54,,47.59359,-54.27349
2018-05-13 11:00:00+00:00,221.0,219.0,5.99,6.97,,47.59359,-54.27349
2018-05-13 11:10:00+00:00,223.0,219.0,6.59,7.49,,47.59359,-54.27349
2018-05-13 11:20:00+00:00,222.0,220.0,9.08,9.98,,47.59359,-54.27349
2018-05-13 11:30:00+00:00,221.0,218.0,8.47,9.51,,47.59359,-54.27349
2018-05-13 11:40:00+00:00,220.0,218.0,7.67,8.51,,47.59359,-54.27349
2018-05-13 11:50:00+00:00,217.0,216.0,8.5,9.38,,47.59359,-54.27349
2018-05-13 12:00:00+00:00,218.0,219.0,9.15,10.34,,47.59359,-54.27349
2018-05-13 12:10:00+00:00,220.0,220.0,10.45,12.01,,47.59359,-54.27349
2018-05-13 12:20:00+00:00,217.0,219.0,10.35,11.18,,47.59359,-54.27349
2018-05-13 12:30:00+00:00,218.0,219.0,10.37,11.54,,47.59359,-54.27349
2018-05-13 12:40:00+00:00,216.0,218.0,9.98,11.39,,47.59359,-54.27349
2018-05-13 12:50:00+00:00,218.0,220.0,11.82,12.67,,47.59359,-54.27349
2018-05-13 13:00:00+00:00,219.0,220.0,10.87,12.41,,47.59359,-54.27349
2018-05-13 13:10:00+00:00,218.0,218.0,10.07,11.79,,47.59359,-54.27349
2018-05-13 13:20:00+00:00,218.0,218.0,11.5,12.87,,47.59359,-54.27349
2018-05-13 13:30:00+00:00,222.0,223.0,11.49,13.34,,47.59359,-54.27349
2018-05-13 13:40:00+00:00,223.0,227.0,11.04,12.23,,47.59359,-54.27349
2018-05-13 13:50:00+00:00,220.0,223.0,11.87,13.51,,47.59359,-54.27349
2018-05-13 14:00:00+00:00,220.0,220.0,11.17,12.38,,47.59359,-54.27349
2018-05-13 14:10:00+00:00,222.0,220.0,10.77,11.82,,47.59359,-54.27349
2018-05-13 14:20:00+00:00,223.0,224.0,11.63,13.34,,47.59359,-54.27349
2018-05-13 14:30:00+00:00,224.0,228.0,11.99,13.26,,47.59359,-54.27349
2018-05-13 14:40:00+00:00,224.0,219.0,11.74,13.21,,47.59359,-54.27349
2018-05-13 14:50:00+00:00,224.0,225.0,12.65,14.64,,47.59359,-54.27349
2018-05-13 15:00:00+00:00,221.0,220.0,12.07,13.35,,47.59359,-54.27349
2018-05-13 15:10:00+00:00,220.0,219.0,12.23,14.01,,47.59359,-54.27349
2018-05-13 15:20:00+00:00,220.0,224.0,12.55,13.98,,47.59359,-54.27349
2018-05-13 15:30:00+00:00,219.0,225.0,11.97,14.2,,47.59359,-54.27349
2018-05-13 15:40:00+00:00,220.0,218.0,12.63,14.58,,47.59359,-54.27349
2018-05-13 15:50:00+00:00,221.0,221.0,12.89,14.45,,47.59359,-54.27349
2018-05-13 16:00:00+00:00,224.0,221.0,12.15,14.32,,47.59359,-54.27349
2018-05-13 16:10:00+00:00,220.0,224.0,11.82,13.18,,47.59359,-54.27349
2018-05-13 16:20:00+00:00,218.0,220.0,11.83,13.44,,47.59359,-54.27349
2018-05-13 16:30:00+00:00,217.0,218.0,10.88,12.67,,47.59359,-54.27349
2018-05-13 16:40:00+00:00,217.0,218.0,11.34,12.63,,47.59359,-54.27349
2018-05-13 16:50:00+00:00,217.0,218.0,12.5,13.65,,47.59359,-54.27349
2018-05-13 17:00:00+00:00,216.0,219.0,12.73,15.14,,47.59359,-54.27349
2018-05-13 17:10:00+00:00,217.0,220.0,13.16,14.9,,47.59359,-54.27349
2018-05-13 17:20:00+00:00,217.0,217.0,12.73,14.66,,47.59359,-54.27349
2018-05-13 17:30:00+00:00,218.0,220.0,12.98,14.5,,47.59359,-54.27349
2018-05-13 17:40:00+00:00,219.0,226.0,12.57,14.15,,47.59359,-54.27349
2018-05-13 17:50:00+00:00,218.0,217.0,13.26,14.52,,47.59359,-54.27349
2018-05-13 18:00:00+00:00,219.0,221.0,13.41,15.13,,47.59359,-54.27349
2018-05-13 18:10:00+00:00,220.0,219.0,13.9,15.95,,47.59359,-54.27349
2018-05-13 18:20:00+00:00,221.0,225.0,13.04,14.69,,47.59359,-54.27349
2018-05-13 18:30:00+00:00,220.0,220.0,12.37,14.56,,47.59359,-54.27349
2018-05-13 18:40:00+00:00,219.0,220.0,12.37,14.18,,47.59359,-54.27349
2018-05-13 18:50:00+00:00,219.0,219.0,11.7,13.39,,47.59359,-54.27349
2018-05-13 19:00:00+00:00,221.0,223.0,11.39,12.55,,47.59359,-54.27349
2018-05-13 19:10:00+00:00,225.0,229.0,11.39,13.11,,47.59359,-54.27349
2018-05-13 19:20:00+00:00,223.0,228.0,11.35,12.56,,47.59359,-54.27349
2018-05-13 19:30:00+00:00,224.0,228.0,10.38,11.83,,47.59359,-54.27349
2018-05-13 19:40:00+00:00,264.0,271.0,10.3,12.35,,47.59359,-54.27349
2018-05-13 19:50:00+00:00,264.0,267.0,10.75,12.94,,47.59359,-54.27349
2018-05-13 20:00:00+00:00,267.0,270.0,11.91,13.68,,47.59359,-54.27349
2018-05-13 20:10:00+00:00,266.0,269.0,11.17,12.76,,47.59359,-54.27349
2018-05-13 20:20:00+00:00,271.0,268.0,11.8,13.79,,47.59359,-54.27349
2018-05-13 20:30:00+00:00,273.0,275.0,10.59,11.7,,47.59359,-54.27349
2018-05-13 20:40:00+00:00,264.0,268.0,10.2,11.37,,47.59359,-54.27349
2018-05-13 20:50:00+00:00,271.0,271.0,10.55,11.48,,47.59359,-54.27349
2018-05-13 21:00:00+00:00,269.0,273.0,10.48,12.59,,47.59359,-54.27349
2018-05-13 21:10:00+00:00,269.0,270.0,10.27,11.47,,47.59359,-54.27349
2018-05-13 21:20:00+00:00,274.0,279.0,7.65,8.26,,47.59359,-54.27349
2018-05-13 21:30:00+00:00,261.0,260.0,9.09,10.22,,47.59359,-54.27349
2018-05-13 21:40:00+00:00,268.0,268.0,9.12,10.31,,47.59359,-54.27349
2018-05-13 21:50:00+00:00,261.0,262.0,8.04,9.09,,47.59359,-54.27349
2018-05-13 22:00:00+00:00,264.0,266.0,7.45,8.33,,47.59359,-54.27349
2018-05-13 22:10:00+00:00,259.0,257.0,8.19,9.65,,47.59359,-54.27349
2018-05-13 22:20:00+00:00,258.0,259.0,8.41,9.69,,47.59359,-54.27349
2018-05-13 22:30:00+00:00,262.0,261.0,9.27,10.55,,47.59359,-54.27349
2018-05-13 22:40:00+00:00,266.0,267.0,9.51,10.56,,47.59359,-54.27349
2018-05-13 22:50:00+00:00,272.0,280.0,7.98,8.61,,47.59359,-54.27349
2018-05-13 23:00:00+00:00,276.0,280.0,7.64,8.4,,47.59359,-54.27349
2018-05-13 23:10:00+00:00,273.0,274.0,6.63,7.26,,47.59359,-54.27349
2018-05-13 23:20:00+00:00,280.0,284.0,7.13,7.75,,47.59359,-54.27349
2018-05-13 23:30:00+00:00,277.0,278.0,7.15,7.73,,47.59359,-54.27349
2018-05-13 23:40:00+00:00,274.0,277.0,6.25,7.04,,47.59359,-54.27349
2018-05-13 23:50:00+00:00,253.0,255.0,4.82,5.16,,47.59359,-54.27349
